TimeEST,TemperatureF,Dew PointF,Humidity,Sea Level PressureIn,VisibilityMPH,Wind Direction,Wind SpeedMPH,Gust SpeedMPH,PrecipitationIn,Events,Conditions,WindDirDegrees,DateUTC
12:51 AM,36.0,27.0,70,30.36,10.0,NNE,5.8,-,N/A,,Overcast,20,2013-12-01 05:51:00
12:58 AM,37.4,26.6,65,30.35,10.0,North,3.5,-,N/A,,Overcast,360,2013-12-01 05:58:00
1:15 AM,35.6,26.6,70,30.34,10.0,NNE,6.9,-,N/A,,Overcast,20,2013-12-01 06:15:00
1:51 AM,37.0,27.0,67,30.34,10.0,North,6.9,-,N/A,,Overcast,350,2013-12-01 06:51:00
1:59 AM,37.4,26.6,65,30.33,10.0,North,6.9,-,N/A,,Mostly Cloudy,350,2013-12-01 06:59:00
2:51 AM,37.0,28.0,70,30.32,10.0,NNE,5.8,-,N/A,,Mostly Cloudy,20,2013-12-01 07:51:00
3:51 AM,36.0,28.0,73,30.29,10.0,North,5.8,-,N/A,,Overcast,10,2013-12-01 08:51:00
4:45 AM,35.6,28.4,75,30.27,10.0,NNE,4.6,-,N/A,,Overcast,20,2013-12-01 09:45:00
4:51 AM,37.0,28.0,70,30.26,10.0,NNE,4.6,-,N/A,,Overcast,20,2013-12-01 09:51:00
5:51 AM,35.1,28.0,76,30.26,10.0,North,4.6,-,N/A,,Overcast,10,2013-12-01 10:51:00
6:29 AM,33.8,26.6,75,30.24,10.0,NE,4.6,-,N/A,,Scattered Clouds,40,2013-12-01 11:29:00
6:51 AM,32.0,26.1,79,30.25,10.0,NNE,5.8,-,N/A,,Scattered Clouds,30,2013-12-01 11:51:00
7:51 AM,35.1,28.9,78,30.25,10.0,NNE,4.6,-,N/A,,Scattered Clouds,20,2013-12-01 12:51:00
8:51 AM,39.0,30.9,73,30.23,10.0,NNE,3.5,-,N/A,,Scattered Clouds,30,2013-12-01 13:51:00
9:51 AM,42.1,32.0,67,30.22,10.0,Calm,Calm,-,N/A,,Mostly Cloudy,0,2013-12-01 14:51:00
10:51 AM,45.0,32.0,60,30.19,10.0,Calm,Calm,-,N/A,,Mostly Cloudy,0,2013-12-01 15:51:00
11:51 AM,46.0,30.0,54,30.15,10.0,South,3.5,-,N/A,,Mostly Cloudy,180,2013-12-01 16:51:00
12:51 PM,48.0,30.0,50,30.12,10.0,Variable,4.6,-,N/A,,Mostly Cloudy,0,2013-12-01 17:51:00
1:51 PM,48.0,28.9,48,30.09,10.0,SSW,3.5,-,N/A,,Mostly Cloudy,210,2013-12-01 18:51:00
2:51 PM,50.0,30.0,46,30.08,10.0,Variable,3.5,-,N/A,,Mostly Cloudy,0,2013-12-01 19:51:00
3:51 PM,48.0,30.9,52,30.08,10.0,SSW,5.8,-,N/A,,Mostly Cloudy,210,2013-12-01 20:51:00
4:51 PM,48.0,30.0,50,30.07,10.0,WSW,5.8,-,N/A,,Overcast,240,2013-12-01 21:51:00
5:51 PM,46.9,30.0,52,30.06,10.0,SW,5.8,-,N/A,,Overcast,230,2013-12-01 22:51:00
6:51 PM,48.0,28.9,48,30.06,10.0,WSW,6.9,-,N/A,,Overcast,250,2013-12-01 23:51:00
7:51 PM,46.9,30.0,52,30.06,10.0,WSW,4.6,-,N/A,,Overcast,250,2013-12-02 00:51:00
8:51 PM,42.1,30.0,62,30.04,10.0,SW,4.6,-,N/A,,Mostly Cloudy,220,2013-12-02 01:51:00
9:51 PM,44.1,28.9,55,30.04,10.0,West,5.8,-,N/A,,Mostly Cloudy,260,2013-12-02 02:51:00
10:51 PM,44.1,28.9,55,30.03,10.0,West,4.6,-,N/A,,Overcast,270,2013-12-02 03:51:00
11:51 PM,43.0,28.0,56,30.02,10.0,West,3.5,-,N/A,,Overcast,270,2013-12-02 04:51:00